owner,sensor,date,latitude,longitude,air_pressure(mBar),qcFlag 
TABS,ioos:station:wmo:42044:1,2014-02-01T00:00:00Z,26.1914,-97.0507,1010.79,11111222 
TABS,ioos:station:wmo:42044:1,2014-02-01T00:30:00Z,26.1914,-97.0507,1010.76,11111222 
TABS,ioos:station:wmo:42044:1,2014-02-01T01:00:00Z,26.1914,-97.0507,1010.88,11111222 
TABS,ioos:station:wmo:42044:1,2014-02-01T01:30:00Z,26.1914,-97.0507,1011.26,11111222 
TABS,ioos:station:wmo:42044:1,2014-02-01T02:00:00Z,26.1914,-97.0507,1011.42,11111222 
TABS,ioos:station:wmo:42044:1,2014-02-01T02:30:00Z,26.1914,-97.0507,1011.59,11111222 
TABS,ioos:station:wmo:42044:1,2014-02-01T03:00:00Z,26.1914,-97.0507,1011.44,11111222 
TABS,ioos:station:wmo:42044:1,2014-02-01T03:30:00Z,26.1914,-97.0507,1011.5,11111222 
TABS,ioos:station:wmo:42044:1,2014-02-01T04:00:00Z,26.1914,-97.0507,1011.72,11111222 
TABS,ioos:station:wmo:42044:1,2014-02-01T04:30:00Z,26.1914,-97.0507,1011.71,11111222 
TABS,ioos:station:wmo:42044:1,2014-02-01T05:00:00Z,26.1914,-97.0507,1011.44,11111222 
TABS,ioos:station:wmo:42044:1,2014-02-01T05:30:00Z,26.1914,-97.0507,1011.08,11111222 
TABS,ioos:station:wmo:42044:1,2014-02-01T06:00:00Z,26.1914,-97.0507,1010.77,11111222 
TABS,ioos:station:wmo:42044:1,2014-02-01T06:30:00Z,26.1914,-97.0507,1010.53,11111222 
TABS,ioos:station:wmo:42044:1,2014-02-01T07:00:00Z,26.1914,-97.0507,1010.5,11111222 
TABS,ioos:station:wmo:42044:1,2014-02-01T07:30:00Z,26.1914,-97.0507,1010.45,11111222 
TABS,ioos:station:wmo:42044:1,2014-02-01T08:00:00Z,26.1914,-97.0507,1010.06,11111222 
TABS,ioos:station:wmo:42044:1,2014-02-01T08:30:00Z,26.1914,-97.0507,1009.71,11111222 
TABS,ioos:station:wmo:42044:1,2014-02-01T09:00:00Z,26.1914,-97.0507,1009.54,11111222 
TABS,ioos:station:wmo:42044:1,2014-02-01T09:30:00Z,26.1914,-97.0507,1009.38,11111222 
TABS,ioos:station:wmo:42044:1,2014-02-01T10:00:00Z,26.1914,-97.0507,1009.26,11111222 
TABS,ioos:station:wmo:42044:1,2014-02-01T10:30:00Z,26.1914,-97.0507,1009.28,11111222 
TABS,ioos:station:wmo:42044:1,2014-02-01T11:00:00Z,26.1914,-97.0507,1009.38,11111222 
TABS,ioos:station:wmo:42044:1,2014-02-01T11:30:00Z,26.1914,-97.0507,1009.31,11111222 
TABS,ioos:station:wmo:42044:1,2014-02-01T12:00:00Z,26.1914,-97.0507,1009.22,11111222 
TABS,ioos:station:wmo:42044:1,2014-02-01T12:30:00Z,26.1914,-97.0507,1009.37,11111222 
TABS,ioos:station:wmo:42044:1,2014-02-01T13:00:00Z,26.1914,-97.0507,1009.35,11111222 
TABS,ioos:station:wmo:42044:1,2014-02-01T13:30:00Z,26.1914,-97.0507,1009.55,11111222 
TABS,ioos:station:wmo:42044:1,2014-02-01T14:00:00Z,26.1914,-97.0507,1009.72,11111222 
TABS,ioos:station:wmo:42044:1,2014-02-01T14:30:00Z,26.1914,-97.0507,1010.19,11111222 
TABS,ioos:station:wmo:42044:1,2014-02-01T15:00:00Z,26.1914,-97.0507,1010.57,11111222 
TABS,ioos:station:wmo:42044:1,2014-02-01T15:30:00Z,26.1914,-97.0507,1010.53,11111222 
TABS,ioos:station:wmo:42044:1,2014-02-01T16:00:00Z,26.1914,-97.0507,1010.7,11111222 
TABS,ioos:station:wmo:42044:1,2014-02-01T16:30:00Z,26.1914,-97.0507,1010.39,11111222 
TABS,ioos:station:wmo:42044:1,2014-02-01T17:00:00Z,26.1914,-97.0507,1010.71,11111222 
TABS,ioos:station:wmo:42044:1,2014-02-01T17:30:00Z,26.1914,-97.0507,1010.25,11111222 
TABS,ioos:station:wmo:42044:1,2014-02-01T18:00:00Z,26.1914,-97.0507,1010.05,11111222 
TABS,ioos:station:wmo:42044:1,2014-02-01T18:30:00Z,26.1914,-97.0507,1009.55,11111222 
TABS,ioos:station:wmo:42044:1,2014-02-01T19:00:00Z,26.1914,-97.0507,1008.95,11111222 
TABS,ioos:station:wmo:42044:1,2014-02-01T19:30:00Z,26.1914,-97.0507,1008.34,11111222 
TABS,ioos:station:wmo:42044:1,2014-02-01T20:00:00Z,26.1914,-97.0507,1007.75,11111222 
TABS,ioos:station:wmo:42044:1,2014-02-01T20:30:00Z,26.1914,-97.0507,1007.5,11111222 
TABS,ioos:station:wmo:42044:1,2014-02-01T21:00:00Z,26.1914,-97.0507,1007.34,11111222 
TABS,ioos:station:wmo:42044:1,2014-02-01T21:30:00Z,26.1914,-97.0507,1007.4,11111222 
TABS,ioos:station:wmo:42044:1,2014-02-01T22:00:00Z,26.1914,-97.0507,1007.48,11111222 
TABS,ioos:station:wmo:42044:1,2014-02-01T22:30:00Z,26.1914,-97.0507,1007.61,11111222 
TABS,ioos:station:wmo:42044:1,2014-02-01T23:00:00Z,26.1914,-97.0507,1007.88,11111222 
TABS,ioos:station:wmo:42044:1,2014-02-01T23:30:00Z,26.1914,-97.0507,1008.08,11111222 
TABS,ioos:station:wmo:42044:1,2014-02-02T00:00:00Z,26.1914,-97.0507,1008.41,11111222 
TABS,ioos:station:wmo:42044:1,2014-02-02T00:30:00Z,26.1914,-97.0507,1008.74,11111222 
TABS,ioos:station:wmo:42044:1,2014-02-02T01:00:00Z,26.1914,-97.0507,1008.78,11111222 
TABS,ioos:station:wmo:42044:1,2014-02-02T01:30:00Z,26.1914,-97.0507,1008.96,11111222 
TABS,ioos:station:wmo:42044:1,2014-02-02T02:00:00Z,26.1914,-97.0507,1009.1,11111222 
TABS,ioos:station:wmo:42044:1,2014-02-02T02:30:00Z,26.1914,-97.0507,1009.49,11111222 
TABS,ioos:station:wmo:42044:1,2014-02-02T03:00:00Z,26.1914,-97.0507,1009.58,11111222 
TABS,ioos:station:wmo:42044:1,2014-02-02T03:30:00Z,26.1914,-97.0507,1009.25,11111222 
TABS,ioos:station:wmo:42044:1,2014-02-02T04:00:00Z,26.1914,-97.0507,1009.3,11111222 
TABS,ioos:station:wmo:42044:1,2014-02-02T04:30:00Z,26.1914,-97.0507,1009.47,11111222 
TABS,ioos:station:wmo:42044:1,2014-02-02T05:00:00Z,26.1914,-97.0507,1009.5,11111222 
TABS,ioos:station:wmo:42044:1,2014-02-02T05:30:00Z,26.1914,-97.0507,1009.26,11111222 
TABS,ioos:station:wmo:42044:1,2014-02-02T06:00:00Z,26.1914,-97.0507,1009.16,11111222 
TABS,ioos:station:wmo:42044:1,2014-02-02T06:30:00Z,26.1914,-97.0507,1008.99,11111222 
TABS,ioos:station:wmo:42044:1,2014-02-02T07:00:00Z,26.1914,-97.0507,1008.67,11111222 
TABS,ioos:station:wmo:42044:1,2014-02-02T07:30:00Z,26.1914,-97.0507,1008.7,11111222 
TABS,ioos:station:wmo:42044:1,2014-02-02T08:00:00Z,26.1914,-97.0507,1008.7,11111222 
TABS,ioos:station:wmo:42044:1,2014-02-02T08:30:00Z,26.1914,-97.0507,1008.46,11111222 
TABS,ioos:station:wmo:42044:1,2014-02-02T09:00:00Z,26.1914,-97.0507,1008.07,11111222 
TABS,ioos:station:wmo:42044:1,2014-02-02T09:30:00Z,26.1914,-97.0507,1007.95,11111222 
TABS,ioos:station:wmo:42044:1,2014-02-02T10:00:00Z,26.1914,-97.0507,1007.74,11111222 
TABS,ioos:station:wmo:42044:1,2014-02-02T10:30:00Z,26.1914,-97.0507,1007.76,11111222 
TABS,ioos:station:wmo:42044:1,2014-02-02T11:00:00Z,26.1914,-97.0507,1007.59,11111222 
TABS,ioos:station:wmo:42044:1,2014-02-02T11:30:00Z,26.1914,-97.0507,1007.89,11111222 
TABS,ioos:station:wmo:42044:1,2014-02-02T12:00:00Z,26.1914,-97.0507,1007.89,11111222 
TABS,ioos:station:wmo:42044:1,2014-02-02T12:30:00Z,26.1914,-97.0507,1008.11,11111222 
TABS,ioos:station:wmo:42044:1,2014-02-02T13:00:00Z,26.1914,-97.0507,1008.3,11111222 
TABS,ioos:station:wmo:42044:1,2014-02-02T13:30:00Z,26.1914,-97.0507,1008.12,11111222 
TABS,ioos:station:wmo:42044:1,2014-02-02T14:00:00Z,26.1914,-97.0507,1008.12,11111222 
TABS,ioos:station:wmo:42044:1,2014-02-02T14:30:00Z,26.1914,-97.0507,1008.4,11111222 
TABS,ioos:station:wmo:42044:1,2014-02-02T15:00:00Z,26.1914,-97.0507,1009.01,11111222 
TABS,ioos:station:wmo:42044:1,2014-02-02T15:30:00Z,26.1914,-97.0507,1009.58,11111222 
TABS,ioos:station:wmo:42044:1,2014-02-02T16:00:00Z,26.1914,-97.0507,1010.06,11111222 
TABS,ioos:station:wmo:42044:1,2014-02-02T16:30:00Z,26.1914,-97.0507,1010.7,11111222 
TABS,ioos:station:wmo:42044:1,2014-02-02T17:00:00Z,26.1914,-97.0507,1010.67,11111222 
TABS,ioos:station:wmo:42044:1,2014-02-02T17:30:00Z,26.1914,-97.0507,1010.63,11111222 
TABS,ioos:station:wmo:42044:1,2014-02-02T18:00:00Z,26.1914,-97.0507,1010.23,11111222 
TABS,ioos:station:wmo:42044:1,2014-02-02T18:30:00Z,26.1914,-97.0507,1009.84,11111222 
TABS,ioos:station:wmo:42044:1,2014-02-02T19:00:00Z,26.1914,-97.0507,1009.7,11111222 
TABS,ioos:station:wmo:42044:1,2014-02-02T19:30:00Z,26.1914,-97.0507,1009.87,11111222 
TABS,ioos:station:wmo:42044:1,2014-02-02T20:00:00Z,26.1914,-97.0507,1009.94,11111222 
TABS,ioos:station:wmo:42044:1,2014-02-02T20:30:00Z,26.1914,-97.0507,1009.92,11111222 
TABS,ioos:station:wmo:42044:1,2014-02-02T21:00:00Z,26.1914,-97.0507,1010.15,11111222 
TABS,ioos:station:wmo:42044:1,2014-02-02T21:30:00Z,26.1914,-97.0507,1010.5,11111222 
TABS,ioos:station:wmo:42044:1,2014-02-02T22:00:00Z,26.1914,-97.0507,1012.42,11111222 
TABS,ioos:station:wmo:42044:1,2014-02-02T22:30:00Z,26.1914,-97.0507,1013.23,11111222 
TABS,ioos:station:wmo:42044:1,2014-02-02T23:00:00Z,26.1914,-97.0507,1013.87,11111222 
TABS,ioos:station:wmo:42044:1,2014-02-02T23:30:00Z,26.1914,-97.0507,1015.44,11111222 
TABS,ioos:station:wmo:42044:1,2014-02-03T00:00:00Z,26.1914,-97.0507,1015.71,11111222 
TABS,ioos:station:wmo:42044:1,2014-02-03T00:30:00Z,26.1914,-97.0507,1016.23,11111222 
TABS,ioos:station:wmo:42044:1,2014-02-03T01:00:00Z,26.1914,-97.0507,1016.95,11111222 
TABS,ioos:station:wmo:42044:1,2014-02-03T01:30:00Z,26.1914,-97.0507,1017.6,11111222 
TABS,ioos:station:wmo:42044:1,2014-02-03T02:00:00Z,26.1914,-97.0507,1018.22,11111222 
TABS,ioos:station:wmo:42044:1,2014-02-03T02:30:00Z,26.1914,-97.0507,1018.87,11111222 
TABS,ioos:station:wmo:42044:1,2014-02-03T03:00:00Z,26.1914,-97.0507,1019.12,11111222 
TABS,ioos:station:wmo:42044:1,2014-02-03T03:30:00Z,26.1914,-97.0507,1019.11,11111222 
TABS,ioos:station:wmo:42044:1,2014-02-03T04:00:00Z,26.1914,-97.0507,1019.63,11111222 
TABS,ioos:station:wmo:42044:1,2014-02-03T04:30:00Z,26.1914,-97.0507,1019.66,11111222 
TABS,ioos:station:wmo:42044:1,2014-02-03T05:00:00Z,26.1914,-97.0507,1020.23,11111222 
TABS,ioos:station:wmo:42044:1,2014-02-03T05:30:00Z,26.1914,-97.0507,1020.32,11111222 
TABS,ioos:station:wmo:42044:1,2014-02-03T06:00:00Z,26.1914,-97.0507,1020.22,11111222 
TABS,ioos:station:wmo:42044:1,2014-02-03T06:30:00Z,26.1914,-97.0507,1020.2,11111222 
TABS,ioos:station:wmo:42044:1,2014-02-03T07:00:00Z,26.1914,-97.0507,1020.51,11111222 
TABS,ioos:station:wmo:42044:1,2014-02-03T07:30:00Z,26.1914,-97.0507,1020.58,11111222 
TABS,ioos:station:wmo:42044:1,2014-02-03T08:00:00Z,26.1914,-97.0507,1020.23,11111222 
TABS,ioos:station:wmo:42044:1,2014-02-03T08:30:00Z,26.1914,-97.0507,1020.42,11111222 
TABS,ioos:station:wmo:42044:1,2014-02-03T09:00:00Z,26.1914,-97.0507,1020.28,11111222 
TABS,ioos:station:wmo:42044:1,2014-02-03T09:30:00Z,26.1914,-97.0507,1020.43,11111222 
TABS,ioos:station:wmo:42044:1,2014-02-03T10:00:00Z,26.1914,-97.0507,1020.53,11111222 
TABS,ioos:station:wmo:42044:1,2014-02-03T10:30:00Z,26.1914,-97.0507,1020.17,11111222 
TABS,ioos:station:wmo:42044:1,2014-02-03T11:00:00Z,26.1914,-97.0507,1020.56,11111222 
TABS,ioos:station:wmo:42044:1,2014-02-03T11:30:00Z,26.1914,-97.0507,1020.7,11111222 
TABS,ioos:station:wmo:42044:1,2014-02-03T12:00:00Z,26.1914,-97.0507,1020.77,11111222 
TABS,ioos:station:wmo:42044:1,2014-02-03T12:30:00Z,26.1914,-97.0507,1021.31,11111222 
TABS,ioos:station:wmo:42044:1,2014-02-03T13:00:00Z,26.1914,-97.0507,1021.42,11111222 
TABS,ioos:station:wmo:42044:1,2014-02-03T13:30:00Z,26.1914,-97.0507,1021.85,11111222 
TABS,ioos:station:wmo:42044:1,2014-02-03T14:00:00Z,26.1914,-97.0507,1021.64,11111222 
TABS,ioos:station:wmo:42044:1,2014-02-03T14:30:00Z,26.1914,-97.0507,1021.67,11111222 
TABS,ioos:station:wmo:42044:1,2014-02-03T15:00:00Z,26.1914,-97.0507,1022.05,11111222 
TABS,ioos:station:wmo:42044:1,2014-02-03T15:30:00Z,26.1914,-97.0507,1022.68,11111222 
TABS,ioos:station:wmo:42044:1,2014-02-03T16:00:00Z,26.1914,-97.0507,1022.61,11111222 
TABS,ioos:station:wmo:42044:1,2014-02-03T16:30:00Z,26.1914,-97.0507,1022.59,11111222 
TABS,ioos:station:wmo:42044:1,2014-02-03T17:00:00Z,26.1914,-97.0507,1021.93,11111222 
TABS,ioos:station:wmo:42044:1,2014-02-03T17:30:00Z,26.1914,-97.0507,1020.92,11111222 
TABS,ioos:station:wmo:42044:1,2014-02-03T18:00:00Z,26.1914,-97.0507,1020.26,11111222 
TABS,ioos:station:wmo:42044:1,2014-02-03T18:30:00Z,26.1914,-97.0507,1019.83,11111222 
TABS,ioos:station:wmo:42044:1,2014-02-03T19:00:00Z,26.1914,-97.0507,1018.59,11111222 
TABS,ioos:station:wmo:42044:1,2014-02-03T19:30:00Z,26.1914,-97.0507,1018.77,11111222 
TABS,ioos:station:wmo:42044:1,2014-02-03T20:00:00Z,26.1914,-97.0507,1017.62,11111222 
TABS,ioos:station:wmo:42044:1,2014-02-03T20:30:00Z,26.1914,-97.0507,1017.66,11111222 
TABS,ioos:station:wmo:42044:1,2014-02-03T21:00:00Z,26.1914,-97.0507,1017.06,11111222 
TABS,ioos:station:wmo:42044:1,2014-02-03T21:30:00Z,26.1914,-97.0507,1016.89,11111222 
TABS,ioos:station:wmo:42044:1,2014-02-03T22:00:00Z,26.1914,-97.0507,1016.56,11111222 
TABS,ioos:station:wmo:42044:1,2014-02-03T22:30:00Z,26.1914,-97.0507,1016.44,11111222 
TABS,ioos:station:wmo:42044:1,2014-02-03T23:00:00Z,26.1914,-97.0507,1016.22,11111222 
TABS,ioos:station:wmo:42044:1,2014-02-03T23:30:00Z,26.1914,-97.0507,1015.7,11111222 
TABS,ioos:station:wmo:42044:1,2014-02-04T00:00:00Z,26.1914,-97.0507,1015.46,11111222 
TABS,ioos:station:wmo:42044:1,2014-02-04T00:30:00Z,26.1914,-97.0507,1015.43,11111222 
TABS,ioos:station:wmo:42044:1,2014-02-04T01:00:00Z,26.1914,-97.0507,1015.8,11111222 
TABS,ioos:station:wmo:42044:1,2014-02-04T01:30:00Z,26.1914,-97.0507,1015.48,11111222 
TABS,ioos:station:wmo:42044:1,2014-02-04T02:00:00Z,26.1914,-97.0507,1015.81,11111222 
TABS,ioos:station:wmo:42044:1,2014-02-04T02:30:00Z,26.1914,-97.0507,1015.56,11111222 
TABS,ioos:station:wmo:42044:1,2014-02-04T03:00:00Z,26.1914,-97.0507,1015.4,11111222 
TABS,ioos:station:wmo:42044:1,2014-02-04T03:30:00Z,26.1914,-97.0507,1015.39,11111222 
TABS,ioos:station:wmo:42044:1,2014-02-04T04:00:00Z,26.1914,-97.0507,1014.93,11111222 
TABS,ioos:station:wmo:42044:1,2014-02-04T04:30:00Z,26.1914,-97.0507,1014.82,11111222 
TABS,ioos:station:wmo:42044:1,2014-02-04T05:00:00Z,26.1914,-97.0507,1014.13,11111222 
TABS,ioos:station:wmo:42044:1,2014-02-04T05:30:00Z,26.1914,-97.0507,1013.37,11111222 
TABS,ioos:station:wmo:42044:1,2014-02-04T06:00:00Z,26.1914,-97.0507,1013.08,11111222 
TABS,ioos:station:wmo:42044:1,2014-02-04T06:30:00Z,26.1914,-97.0507,1012.45,11111222 
TABS,ioos:station:wmo:42044:1,2014-02-04T07:00:00Z,26.1914,-97.0507,1011.06,11111222 
TABS,ioos:station:wmo:42044:1,2014-02-04T07:30:00Z,26.1914,-97.0507,1011.59,11111222 
TABS,ioos:station:wmo:42044:1,2014-02-04T08:00:00Z,26.1914,-97.0507,1011.25,11111222 
TABS,ioos:station:wmo:42044:1,2014-02-04T08:30:00Z,26.1914,-97.0507,1010.78,11111222 
TABS,ioos:station:wmo:42044:1,2014-02-04T09:00:00Z,26.1914,-97.0507,1010.85,11111222 
TABS,ioos:station:wmo:42044:1,2014-02-04T09:30:00Z,26.1914,-97.0507,1010.57,11111222 
TABS,ioos:station:wmo:42044:1,2014-02-04T10:00:00Z,26.1914,-97.0507,1010.73,11111222 
TABS,ioos:station:wmo:42044:1,2014-02-04T10:30:00Z,26.1914,-97.0507,1010.49,11111222 
TABS,ioos:station:wmo:42044:1,2014-02-04T11:00:00Z,26.1914,-97.0507,1010.63,11111222 
TABS,ioos:station:wmo:42044:1,2014-02-04T11:30:00Z,26.1914,-97.0507,1010.73,11111222 
TABS,ioos:station:wmo:42044:1,2014-02-04T12:00:00Z,26.1914,-97.0507,1010.86,11111222 
TABS,ioos:station:wmo:42044:1,2014-02-04T12:30:00Z,26.1914,-97.0507,1010.6,11111222 
TABS,ioos:station:wmo:42044:1,2014-02-04T13:00:00Z,26.1914,-97.0507,1011.19,11111222 
TABS,ioos:station:wmo:42044:1,2014-02-04T13:30:00Z,26.1914,-97.0507,1011.09,11111222 
TABS,ioos:station:wmo:42044:1,2014-02-04T14:00:00Z,26.1914,-97.0507,1011.77,11111222 
TABS,ioos:station:wmo:42044:1,2014-02-04T14:30:00Z,26.1914,-97.0507,1012.13,11111222 
TABS,ioos:station:wmo:42044:1,2014-02-04T15:00:00Z,26.1914,-97.0507,1012.53,11111222 
TABS,ioos:station:wmo:42044:1,2014-02-04T15:30:00Z,26.1914,-97.0507,1012.67,11111222 
TABS,ioos:station:wmo:42044:1,2014-02-04T16:00:00Z,26.1914,-97.0507,1012.9,11111222 
TABS,ioos:station:wmo:42044:1,2014-02-04T16:30:00Z,26.1914,-97.0507,1013.91,11111222 
TABS,ioos:station:wmo:42044:1,2014-02-04T17:00:00Z,26.1914,-97.0507,1013.63,11111222 
TABS,ioos:station:wmo:42044:1,2014-02-04T17:30:00Z,26.1914,-97.0507,1013.67,11111222 
TABS,ioos:station:wmo:42044:1,2014-02-04T18:00:00Z,26.1914,-97.0507,1013.47,11111222 
TABS,ioos:station:wmo:42044:1,2014-02-04T18:30:00Z,26.1914,-97.0507,1013.25,11111222 
TABS,ioos:station:wmo:42044:1,2014-02-04T19:00:00Z,26.1914,-97.0507,1012.64,11111222 
TABS,ioos:station:wmo:42044:1,2014-02-04T19:30:00Z,26.1914,-97.0507,1012.23,11111222 
TABS,ioos:station:wmo:42044:1,2014-02-04T20:00:00Z,26.1914,-97.0507,1012.21,11111222 
TABS,ioos:station:wmo:42044:1,2014-02-04T20:30:00Z,26.1914,-97.0507,1011.64,11111222 
TABS,ioos:station:wmo:42044:1,2014-02-04T21:00:00Z,26.1914,-97.0507,1012.03,11111222 
TABS,ioos:station:wmo:42044:1,2014-02-04T21:30:00Z,26.1914,-97.0507,1012.15,11111222 
TABS,ioos:station:wmo:42044:1,2014-02-04T22:00:00Z,26.1914,-97.0507,1012.04,11111222 
TABS,ioos:station:wmo:42044:1,2014-02-04T22:30:00Z,26.1914,-97.0507,1012.06,11111222 
TABS,ioos:station:wmo:42044:1,2014-02-04T23:00:00Z,26.1914,-97.0507,1012.58,11111222 
TABS,ioos:station:wmo:42044:1,2014-02-04T23:30:00Z,26.1914,-97.0507,1013.06,11111222 
TABS,ioos:station:wmo:42044:1,2014-02-05T00:00:00Z,26.1914,-97.0507,1013.46,11111222 
TABS,ioos:station:wmo:42044:1,2014-02-05T00:30:00Z,26.1914,-97.0507,1013.59,11111222 
TABS,ioos:station:wmo:42044:1,2014-02-05T01:00:00Z,26.1914,-97.0507,1013.79,11111222 
TABS,ioos:station:wmo:42044:1,2014-02-05T01:30:00Z,26.1914,-97.0507,1014.22,11111222 
TABS,ioos:station:wmo:42044:1,2014-02-05T02:00:00Z,26.1914,-97.0507,1014.8,11111222 
TABS,ioos:station:wmo:42044:1,2014-02-05T02:30:00Z,26.1914,-97.0507,1015.25,11111222 
TABS,ioos:station:wmo:42044:1,2014-02-05T03:00:00Z,26.1914,-97.0507,1015.74,11111222 
TABS,ioos:station:wmo:42044:1,2014-02-05T03:30:00Z,26.1914,-97.0507,1016.09,11111222 
TABS,ioos:station:wmo:42044:1,2014-02-05T04:00:00Z,26.1914,-97.0507,1016.45,11111222 
TABS,ioos:station:wmo:42044:1,2014-02-05T04:30:00Z,26.1914,-97.0507,1016.66,11111222 
TABS,ioos:station:wmo:42044:1,2014-02-05T05:00:00Z,26.1914,-97.0507,1016.83,11111222 
TABS,ioos:station:wmo:42044:1,2014-02-05T05:30:00Z,26.1914,-97.0507,1017.0,11111222 
TABS,ioos:station:wmo:42044:1,2014-02-05T06:00:00Z,26.1914,-97.0507,1016.98,11111222 
TABS,ioos:station:wmo:42044:1,2014-02-05T06:30:00Z,26.1914,-97.0507,1017.13,11111222 
TABS,ioos:station:wmo:42044:1,2014-02-05T07:00:00Z,26.1914,-97.0507,1017.23,11111222 
TABS,ioos:station:wmo:42044:1,2014-02-05T07:30:00Z,26.1914,-97.0507,1017.38,11111222 
TABS,ioos:station:wmo:42044:1,2014-02-05T08:00:00Z,26.1914,-97.0507,1017.25,11111222 
TABS,ioos:station:wmo:42044:1,2014-02-05T08:30:00Z,26.1914,-97.0507,1017.46,11111222 
TABS,ioos:station:wmo:42044:1,2014-02-05T09:00:00Z,26.1914,-97.0507,1017.27,11111222 
TABS,ioos:station:wmo:42044:1,2014-02-05T09:30:00Z,26.1914,-97.0507,1017.61,11111222 
TABS,ioos:station:wmo:42044:1,2014-02-05T10:00:00Z,26.1914,-97.0507,1018.14,11111222 
TABS,ioos:station:wmo:42044:1,2014-02-05T10:30:00Z,26.1914,-97.0507,1018.38,11111222 
TABS,ioos:station:wmo:42044:1,2014-02-05T11:00:00Z,26.1914,-97.0507,1018.62,11111222 
TABS,ioos:station:wmo:42044:1,2014-02-05T11:30:00Z,26.1914,-97.0507,1019.19,11111222 
TABS,ioos:station:wmo:42044:1,2014-02-05T12:00:00Z,26.1914,-97.0507,1019.5,11111222 
TABS,ioos:station:wmo:42044:1,2014-02-05T12:30:00Z,26.1914,-97.0507,1020.01,11111222 
TABS,ioos:station:wmo:42044:1,2014-02-05T13:00:00Z,26.1914,-97.0507,1020.2,11111222 
TABS,ioos:station:wmo:42044:1,2014-02-05T13:30:00Z,26.1914,-97.0507,1020.59,11111222 
TABS,ioos:station:wmo:42044:1,2014-02-05T14:00:00Z,26.1914,-97.0507,1021.2,11111222 
TABS,ioos:station:wmo:42044:1,2014-02-05T14:30:00Z,26.1914,-97.0507,1021.55,11111222 
TABS,ioos:station:wmo:42044:1,2014-02-05T15:00:00Z,26.1914,-97.0507,1022.0,11111222 
TABS,ioos:station:wmo:42044:1,2014-02-05T15:30:00Z,26.1914,-97.0507,1022.16,11111222 
TABS,ioos:station:wmo:42044:1,2014-02-05T16:00:00Z,26.1914,-97.0507,1022.37,11111222 
TABS,ioos:station:wmo:42044:1,2014-02-05T16:30:00Z,26.1914,-97.0507,1022.73,11111222 
TABS,ioos:station:wmo:42044:1,2014-02-05T17:00:00Z,26.1914,-97.0507,1023.11,11111222 
TABS,ioos:station:wmo:42044:1,2014-02-05T17:30:00Z,26.1914,-97.0507,1023.39,11111222 
TABS,ioos:station:wmo:42044:1,2014-02-05T18:00:00Z,26.1914,-97.0507,1022.62,11111222 
TABS,ioos:station:wmo:42044:1,2014-02-05T18:30:00Z,26.1914,-97.0507,1022.93,11111222 
TABS,ioos:station:wmo:42044:1,2014-02-05T19:00:00Z,26.1914,-97.0507,1022.82,11111222 
TABS,ioos:station:wmo:42044:1,2014-02-05T19:30:00Z,26.1914,-97.0507,1022.25,11111222 
TABS,ioos:station:wmo:42044:1,2014-02-05T20:00:00Z,26.1914,-97.0507,1022.09,11111222 
TABS,ioos:station:wmo:42044:1,2014-02-05T20:30:00Z,26.1914,-97.0507,1021.72,11111222 
TABS,ioos:station:wmo:42044:1,2014-02-05T21:00:00Z,26.1914,-97.0507,1021.78,11111222 
TABS,ioos:station:wmo:42044:1,2014-02-05T21:30:00Z,26.1914,-97.0507,1021.87,11111222 
TABS,ioos:station:wmo:42044:1,2014-02-05T22:00:00Z,26.1914,-97.0507,1021.97,11111222 
TABS,ioos:station:wmo:42044:1,2014-02-05T22:30:00Z,26.1914,-97.0507,1022.18,11111222 
TABS,ioos:station:wmo:42044:1,2014-02-05T23:00:00Z,26.1914,-97.0507,1021.89,11111222 
TABS,ioos:station:wmo:42044:1,2014-02-05T23:30:00Z,26.1914,-97.0507,1022.71,11111222 
TABS,ioos:station:wmo:42044:1,2014-02-06T00:00:00Z,26.1914,-97.0507,1022.81,11111222 
TABS,ioos:station:wmo:42044:1,2014-02-06T00:30:00Z,26.1914,-97.0507,1022.95,11111222 
TABS,ioos:station:wmo:42044:1,2014-02-06T01:00:00Z,26.1914,-97.0507,1023.05,11111222 
TABS,ioos:station:wmo:42044:1,2014-02-06T01:30:00Z,26.1914,-97.0507,1023.36,11111222 
TABS,ioos:station:wmo:42044:1,2014-02-06T02:00:00Z,26.1914,-97.0507,1023.72,11111222 
TABS,ioos:station:wmo:42044:1,2014-02-06T02:30:00Z,26.1914,-97.0507,1023.66,11111222 
TABS,ioos:station:wmo:42044:1,2014-02-06T03:00:00Z,26.1914,-97.0507,1023.74,11111222 
TABS,ioos:station:wmo:42044:1,2014-02-06T03:30:00Z,26.1914,-97.0507,1023.89,11111222 
TABS,ioos:station:wmo:42044:1,2014-02-06T04:00:00Z,26.1914,-97.0507,1023.79,11111222 
TABS,ioos:station:wmo:42044:1,2014-02-06T04:30:00Z,26.1914,-97.0507,1023.9,11111222 
TABS,ioos:station:wmo:42044:1,2014-02-06T05:00:00Z,26.1914,-97.0507,1023.75,11111222 
TABS,ioos:station:wmo:42044:1,2014-02-06T05:30:00Z,26.1914,-97.0507,1023.58,11111222 
TABS,ioos:station:wmo:42044:1,2014-02-06T06:00:00Z,26.1914,-97.0507,1023.69,11111222 
TABS,ioos:station:wmo:42044:1,2014-02-06T06:30:00Z,26.1914,-97.0507,1023.33,11111222 
TABS,ioos:station:wmo:42044:1,2014-02-06T07:00:00Z,26.1914,-97.0507,1023.51,11111222 
TABS,ioos:station:wmo:42044:1,2014-02-06T07:30:00Z,26.1914,-97.0507,1022.97,11111222 
TABS,ioos:station:wmo:42044:1,2014-02-06T08:00:00Z,26.1914,-97.0507,1022.73,11111222 
TABS,ioos:station:wmo:42044:1,2014-02-06T08:30:00Z,26.1914,-97.0507,1022.99,11111222 
TABS,ioos:station:wmo:42044:1,2014-02-06T09:00:00Z,26.1914,-97.0507,1022.51,11111222 
TABS,ioos:station:wmo:42044:1,2014-02-06T09:30:00Z,26.1914,-97.0507,1022.03,11111222 
TABS,ioos:station:wmo:42044:1,2014-02-06T10:00:00Z,26.1914,-97.0507,1022.56,11111222 
TABS,ioos:station:wmo:42044:1,2014-02-06T10:30:00Z,26.1914,-97.0507,1022.43,11111222 
TABS,ioos:station:wmo:42044:1,2014-02-06T11:00:00Z,26.1914,-97.0507,1022.8,11111222 
TABS,ioos:station:wmo:42044:1,2014-02-06T11:30:00Z,26.1914,-97.0507,1023.33,11111222 
TABS,ioos:station:wmo:42044:1,2014-02-06T12:00:00Z,26.1914,-97.0507,1023.26,11111222 
TABS,ioos:station:wmo:42044:1,2014-02-06T12:30:00Z,26.1914,-97.0507,1024.05,11111222 
TABS,ioos:station:wmo:42044:1,2014-02-06T13:00:00Z,26.1914,-97.0507,1024.95,11111222 
TABS,ioos:station:wmo:42044:1,2014-02-06T13:30:00Z,26.1914,-97.0507,1025.0,11111222 
TABS,ioos:station:wmo:42044:1,2014-02-06T14:00:00Z,26.1914,-97.0507,1025.81,11111222 
TABS,ioos:station:wmo:42044:1,2014-02-06T14:30:00Z,26.1914,-97.0507,1025.95,11111222 
TABS,ioos:station:wmo:42044:1,2014-02-06T15:00:00Z,26.1914,-97.0507,1025.87,11111222 
TABS,ioos:station:wmo:42044:1,2014-02-06T15:30:00Z,26.1914,-97.0507,1026.76,11111222 
TABS,ioos:station:wmo:42044:1,2014-02-06T16:00:00Z,26.1914,-97.0507,1026.94,11111222 
TABS,ioos:station:wmo:42044:1,2014-02-06T16:30:00Z,26.1914,-97.0507,1026.85,11111222 
TABS,ioos:station:wmo:42044:1,2014-02-06T17:00:00Z,26.1914,-97.0507,1026.63,11111222 
TABS,ioos:station:wmo:42044:1,2014-02-06T17:30:00Z,26.1914,-97.0507,1026.52,11111222 
TABS,ioos:station:wmo:42044:1,2014-02-06T18:00:00Z,26.1914,-97.0507,1026.55,11111222 
TABS,ioos:station:wmo:42044:1,2014-02-06T18:30:00Z,26.1914,-97.0507,1026.29,11111222 